Location: ?????????
(41.2528°N, 22.8235°E)
Time: 12:15:46
(UTC+00:00)

Daily predictions for brighter satellites

Satellite Brightness Start Highest point End
(mag) Time Altitude Azimuth Time Altitude Azimuth Time Altitude Azimuth
Cosmos 2061 Rocket 4.1 17:01:40 10° S 17:08:03 80° E 17:14:31 10° N
USA 59 Rocket 1.1 17:04:28 10° NNW 17:08:04 31° NE 17:12:48 10° ESE
SAR-Lupe-2 4.2 17:05:28 10° SE 17:08:46 36° ENE 17:12:05 10° N
Landsat 7 3.8 17:04:37 10° SSE 17:09:19 90° E 17:14:03 10° NNW
BREEZE-M DEB (TANK) 3.1 17:07:48 10° W 17:10:03 33° NNW 17:12:03 10° NE
COSMOS 2428 2.7 17:05:36 10° S 17:11:13 64° ESE 17:16:53 10° NNE
Meteor PRIRODA 4.3 17:11:40 10° SE 17:14:32 28° ENE 17:17:24 10° N
ATLAS 3B R/B 4.2 17:08:34 10° NW 17:15:53 44° WSW 17:22:58 10° S
Cosmos 1536 4.2 17:14:25 10° SE 17:17:01 18° E 17:19:37 10° NE
Cosmos 1818 4.4 17:12:29 10° SW 17:17:50 57° NW 17:23:15 10° NNE
Cosmos 2292 Rocket 3.9 17:14:27 10° NNW 17:17:51 49° W 17:20:46 10° S
Cosmos 1842 4.2 17:16:34 10° NNE 17:19:31 23° ENE 17:22:28 10° SE
Okean O Rocket 3.5 17:20:26 10° E 17:22:28 13° ENE 17:24:29 10° NE
Cosmos 1707 3.9 17:20:47 10° NNE 17:23:33 21° ENE 17:26:01 11° ESE
CZ-4B DEB 4.5 17:20:12 10° SE 17:25:28 48° ENE 17:30:44 10° N
Cosmos 2278 Rocket 3.0 17:20:54 10° N 17:26:02 34° ENE 17:30:47 12° ESE
Tsikada Rocket 4.1 17:19:44 10° N 17:26:03 85° W 17:32:25 10° S
Meteor 2-4 Rocket 4.1 17:20:10 10° NNW 17:26:07 76° W 17:31:54 10° S
NOSS 2-1 (C) 4.0 17:24:31 10° NNW 17:28:21 47° NE 17:33:19 11° SE
DMSP B5D1-3 4.5 17:24:50 10° NNE 17:29:56 86° ESE 17:35:00 10° SSW
CZ-4B R/B 4.0 17:25:27 10° SE 17:30:08 30° ENE 17:34:46 10° N
CZ-4 R/B 1.8 17:29:21 10° SE 17:32:53 38° ENE 17:36:29 10° N
Cosmos 1626 4.4 17:30:56 10° NW 17:33:19 22° W 17:35:41 10° SW
Cosmos 1766 Rocket 3.5 17:30:42 10° S 17:35:00 69° E 17:39:22 10° NNE
ADEOS 3.5 17:30:33 10° SSE 17:35:44 72° ENE 17:40:57 10° N
Cosmos 44 Rocket 3.7 17:31:08 10° NW 17:35:48 61° WSW 17:40:23 10° SSE
Resurs 01 Rocket 2.5 17:32:51 11° SE 17:36:30 31° ENE 17:40:23 10° N
TSX-5 3.1 17:33:31 10° NNW 17:36:39 82° ENE 17:40:02 10° SSE
GEOS 3 Rocket 4.2 17:32:35 13° ESE 17:36:55 43° NE 17:41:47 10° NNW
USA 306 4.4 17:34:53 10° W 17:37:23 23° NNW 17:40:16 10° NNE
YAOGAN 1 3.7 17:35:09 10° S 17:39:15 46° W 17:43:24 10° NNW
Cosmos 1814 Rocket 4.0 17:34:09 10° SSW 17:39:27 89° WNW 17:44:45 10° NNE
CZ-4B R/B 3.3 17:34:45 10° SSE 17:39:28 78° ENE 17:44:16 10° NNW
NOSS 3-3 (A) 4.4 17:35:26 10° S 17:39:54 30° ESE 17:44:53 10° NE
Helios 1A 2.8 17:38:37 10° NNE 17:42:41 72° ESE 17:46:43 10° S
USA 290 2.7 17:42:44 10° N 17:45:54 41° ENE 17:47:32 23° SE
Okean-O 4.5 17:45:38 13° ENE 17:46:08 13° ENE 17:48:13 10° NE
Cosmos 1743 4.3 17:43:16 10° SW 17:46:34 35° WNW 17:49:53 10° N
USA 186 2.5 17:45:12 22° ESE 17:46:38 33° ENE 17:49:36 10° N
SPOT 1/Viking Rocket 3.5 17:41:51 10° SSE 17:47:02 88° E 17:52:13 10° NNW
Cosmos 1408 Rocket 4.4 17:46:07 13° SE 17:49:17 28° E 17:53:02 10° NNE
Cosmos 2237 Rocket 2.3 17:45:01 10° S 17:50:26 53° ESE 17:55:54 10° NNE
KORONAS-FOTON 3.6 17:46:50 10° N 17:50:30 64° E 17:54:01 11° SSE
CZ-4B R/B 2.7 17:49:19 11° SSE 17:52:59 65° ENE 17:56:58 10° N
CSL-04 Rocket 4.0 17:50:07 16° SE 17:54:05 42° ENE 17:59:04 10° N
ISS -3.3 17:51:34 10° WSW 17:54:54 63° NNW 17:57:45 13° NE
Cosmos 2219 Rocket 4.5 17:50:40 10° WSW 17:55:25 27° NW 18:00:12 10° N
SL-08 R/B 3.9 17:51:42 10° N 17:56:35 64° WNW 18:01:25 10° SSW
Meteor 1-14 Rocket 4.2 17:52:59 10° S 17:58:31 90° WSW 18:04:06 10° N
Meteor 1-11 Rocket 3.9 17:56:16 10° SSE 18:01:39 49° E 18:06:59 10° NNE
NOSS 2-1 (E) 3.8 18:01:28 10° NW 18:05:37 86° SW 18:09:34 20° SSE
Cosmos 1328 Rocket 4.0 18:01:54 10° NNW 18:06:09 61° W 18:10:22 10° S
Cosmos 1356 Rocket 3.3 18:04:51 10° N 18:09:03 78° ENE 18:11:51 20° SSE
SJ-6B 3.7 18:05:37 10° S 18:09:06 45° W 18:12:35 10° NNW
Cosmos 1674 3.7 18:06:12 10° NNW 18:09:20 38° W 18:12:24 10° SSW
Cosmos 158 Rocket 3.8 18:04:51 10° S 18:09:36 54° ESE 18:14:20 10° NNE
Lacrosse 4 Rocket 3.3 18:06:45 10° NW 18:10:31 30° WSW 18:14:15 10° S
CARTOSAT-1 3.4 18:09:13 21° SSE 18:12:00 75° ENE 18:16:15 10° N
NOSS 2-1 (D) 4.0 18:09:10 10° NW 18:13:17 69° WSW 18:17:05 20° SSE
ATLAS CENTAUR R/B 0.8 18:11:23 10° SSW 18:14:52 86° ESE 18:18:33 10° NNE
Cosmos 1805 Rocket 4.2 18:15:48 33° ENE 18:15:48 33° ENE 18:19:14 10° NNE
Meteor 1-4 Rocket 3.3 18:14:22 10° NNW 18:16:51 36° W 18:18:11 21° SSW
ARGOS Delta rocket 4.4 18:13:50 10° S 18:18:54 63° W 18:23:43 10° NNW
Cosmos 1980 3.7 18:14:16 10° SSW 18:19:56 83° WNW 18:25:39 10° NNE
In-Cosmos 22 4.1 18:15:31 10° N 18:21:12 69° E 18:24:24 26° SSE
Cosmos 2369 Rocket 4.1 18:19:36 10° NNE 18:22:37 14° NE 18:23:25 14° NE
Cosmos 1733 3.0 18:19:37 10° SSW 18:23:03 75° W 18:26:30 10° N
ACS3 Solar Sail 1.9 18:24:19 28° SE 18:27:48 61° ENE 18:34:06 10° N
CSL-04 Debris 4.1 18:26:01 20° SSE 18:29:52 88° WSW 18:35:23 10° NNW
SWARM A 4.2 18:29:55 72° S 18:30:15 89° W 18:33:47 10° N
Cosmos 1943 Rocket 2.0 18:25:07 10° NNW 18:30:38 72° ENE 18:32:34 41° SE
Sich 1 3.0 18:30:57 55° E 18:30:57 55° E 18:35:01 10° NNE
USA 276 3.4 18:28:33 10° NW 18:30:24 31° NNW 18:30:24 31° NNW
Nadezhda 4 Rocket 3.9 18:26:39 10° N 18:32:57 81° E 18:37:05 23° SSE
ERS-1 Rocket 4.3 18:34:09 24° NE 18:34:09 24° NE 18:37:31 10° NNE
Terra 3.6 18:35:10 18° NE 18:35:10 18° NE 18:37:22 10° NNE
Cosmos 1570 Rocket 4.1 18:28:52 10° SSW 18:34:09 78° WNW 18:39:26 10° NNE
Cosmos 2298 Rocket 4.4 18:30:32 10° N 18:35:33 42° ENE 18:35:57 41° ENE
Cosmos 2150 Rocket 4.4 18:32:24 10° N 18:37:18 42° ENE 18:37:30 42° ENE
BlueWalker 3 3.0 18:34:05 10° WNW 18:37:31 34° SW 18:37:58 33° SSW
USA 32 4.1 18:33:12 10° N 18:38:21 54° E 18:38:54 52° ESE
Cosmos 2026 Rocket 4.2 18:34:23 10° N 18:40:24 48° ENE 18:41:19 45° ESE
Cosmos 1092 Rocket 4.2 18:34:41 10° N 18:40:48 48° ENE 18:41:49 44° ESE
Cosmos 836 Rocket 4.4 18:39:33 10° SSW 18:44:49 85° ESE 18:50:09 10° NNE
Cosmos 1315 Rocket 2.9 18:45:39 10° N 18:49:14 71° NNW 18:49:14 71° NNW
SL-16 R/B 3.4 18:53:32 27° NE 18:53:32 27° NE 18:56:14 10° NE
Cosmos 1634 Rocket 4.1 18:51:55 52° ESE 18:52:15 53° E 18:58:22 10° NNE
Cosmos 1125 Rocket 3.6 18:48:54 10° NNW 18:54:04 69° WSW 18:55:25 48° S
USA 59 Rocket 1.9 18:53:37 10° WNW 18:57:35 31° WSW 19:00:06 22° SSW
Okean O Rocket 1.9 18:57:42 60° SW 18:58:09 64° WSW 19:02:34 10° NNW
Cosmos 773 Rocket 4.1 19:05:45 66° NE 19:05:45 66° NE 19:10:19 10° NNE
CZ-4 R/B 4.1 19:05:26 10° SW 19:07:34 14° W 19:09:43 10° WNW
Cosmos 2034 Rocket 4.4 19:03:42 10° SSW 19:09:49 59° W 19:15:56 10° N
Cosmos 2278 Rocket 3.5 19:04:57 10° NW 19:10:04 35° WSW 19:12:39 24° SSW
CZ-4B R/B 4.5 19:06:53 17° SSW 19:10:33 36° W 19:15:31 10° NNW
Resurs 01 Rocket 3.7 19:10:19 15° SW 19:12:54 24° W 19:16:29 10° NW
MetOp-B 4.1 19:14:53 79° N 19:14:53 79° N 19:19:57 10° NNW
Cosmos 1627 Rocket 4.3 19:09:43 10° N 19:16:00 90° NE 19:16:37 75° S
NOSS 3-3 (C) 4.3 19:10:50 10° SW 19:16:03 56° NW 19:22:10 10° NNE
Meteor 1-23 Rocket 4.4 19:15:33 10° NNW 19:21:09 67° W 19:21:42 63° SW
SPOT 5 3.4 19:22:14 51° NW 19:22:14 51° NW 19:25:40 10° NNW
Okean-O 3.6 19:23:05 45° NW 19:23:05 45° NW 19:26:20 10° NNW
ISS -0.5 19:29:50 10° WNW 19:30:43 14° NW 19:30:43 14° NW
Cosmos 2279 Rocket 4.4 19:35:28 51° NNE 19:35:28 51° NNE 19:40:05 10° N
Cosmos 2237 Rocket 4.3 19:30:18 10° WSW 19:34:47 24° NW 19:39:18 10° N
Cosmos 1607 4.2 19:31:16 10° SW 19:37:41 69° NW 19:44:08 10° NNE
MOS 1 Rocket 4.5 19:45:39 45° NW 19:45:39 45° NW 19:49:36 10° NNW
ATLAS CENTAUR R/B 4.5 19:51:57 10° NW 19:52:51 11° NW 19:53:46 10° NNW
NOSS 3-4 (A) 4.1 19:51:02 10° NNW 19:57:11 63° NNE 19:57:11 63° NNE
NOSS 3-4 (C) 4.1 19:51:09 10° NNW 19:57:17 62° NNE 19:57:17 62° NNE
Cosmos 2369 Rocket 3.4 20:01:48 10° NNW 20:05:11 37° NNW 20:05:11 37° NNW
Terra 4.0 20:13:52 23° NW 20:13:52 23° NW 20:15:46 10° NNW
ACS3 Solar Sail 3.8 20:09:36 17° WSW 20:12:14 22° W 20:17:02 10° NW
Cosmos 1943 Rocket 4.5 20:10:42 10° WNW 20:13:40 15° W 20:14:06 15° WSW
SL-16 R/B 4.1 20:35:17 26° NW 20:35:17 26° NW 20:39:51 10° N
